This is the latest recevied weather packets stored in our database for station/object W4MJZ-1. If no packets are shown the sender has not sent any weather packets the latest 10 day(s).
| Time | Temp. | Humidity | Pressure | Rain* | Wind** | Luminosity | Snow |
|---|---|---|---|---|---|---|---|
| 1777474639 | 19.44° C | 26% | 1024.1 hPa | 0 mm | - | - | - |
| 1777474339 | 18.89° C | 27% | 1024.1 hPa | 0 mm | - | - | - |
| 1777474040 | 18.33° C | 27% | 1024.1 hPa | 0 mm | - | - | - |
| 1777473739 | 18.33° C | 28% | 1023.7 hPa | 0 mm | - | - | - |
| 1777473439 | 17.78° C | 29% | 1024.1 hPa | 0 mm | - | - | - |
| 1777473139 | 17.78° C | 29% | 1024.1 hPa | 0 mm | - | - | - |
| 1777473003 | 17.78° C | 29% | 1024.4 hPa | 0 mm | - | - | - |
| 1777472839 | 17.78° C | 29% | 1024.4 hPa | 0 mm | - | - | - |
| 1777472540 | 17.22° C | 29% | 1024.1 hPa | 0 mm | - | - | - |
| 1777472241 | 16.67° C | 28% | 1024.1 hPa | 0 mm | - | - | - |
| 1777471939 | 16.67° C | 28% | 1024.4 hPa | 0 mm | - | - | - |
| 1777471639 | 16.11° C | 29% | 1023.7 hPa | 0 mm | - | - | - |
| 1777471339 | 16.11° C | 29% | 1024.1 hPa | 0 mm | - | - | - |
| 1777471039 | 16.11° C | 28% | 1024.1 hPa | 0 mm | - | - | - |
| 1777470739 | 15.56° C | 28% | 1024.1 hPa | 0 mm | - | - | - |
| 1777470440 | 15.56° C | 28% | 1024.1 hPa | 0 mm | - | - | - |
| 1777470139 | 15° C | 28% | 1024.1 hPa | 0 mm | - | - | - |
| 1777469840 | 15° C | 28% | 1024.1 hPa | 0 mm | - | - | - |
| 1777469540 | 15° C | 28% | 1023.7 hPa | 0 mm | - | - | - |
| 1777469239 | 15° C | 28% | 1023.7 hPa | 0 mm | - | - | - |
| 1777468940 | 15° C | 27% | 1023.7 hPa | 0 mm | - | - | - |
| 1777468640 | 14.44° C | 27% | 1023.3 hPa | 0 mm | - | - | - |
| 1777468340 | 14.44° C | 27% | 1023.7 hPa | 0 mm | - | - | - |
| 1777468039 | 14.44° C | 27% | 1023.3 hPa | 0 mm | - | - | - |
| 1777467739 | 14.44° C | 27% | 1023.3 hPa | 0 mm | - | - | - |
* Rain latest hour (hover to see other rain measurements)
** Current wind speed in m/s (hover to see current wind gust speed)